Flag for Norway Weather past 2 weeks in Drammen, Norway

Now
39 °F

Chilly.


Feels Like: 37 °F
Forecast: 1 / 8 °F
Wind: 3 mph from Northeast

Location: Oslo / Fornebu

Current Time: Dec 26, 2014 at 6:20:00 PM

Latest Report: Dec 26, 2014 at 5:50 PM


Visibility: N/A

Pressure: 30.01 "Hg

Humidity: 56%

Dew point: 25 °F

Location of DrammenLocation

Historic Weather in Drammen — Graph

°F

Drammen temperature yesterday

Maximum temperature yesterday: 41 °F (at 9:20 AM)
Minimum temperature yesterday: 36 °F (at 3:50 PM)
Average temperature yesterday: 39 °F

Past Weeks' High & Low Weather Summary

 TemperatureHumidityPressure
High48 °F (Dec 14, 9:20 AM)100% (Dec 15, 9:20 PM)30.21 "Hg (Dec 15, 9:20 PM)
Low32 °F (Dec 15, 9:20 PM)41% (Dec 15, 11:20 AM)28.71 "Hg (Dec 11, 4:20 PM)
Average42 °F72%29.28 "Hg
* Reported Dec 11 4:20 PM — Dec 26 4:50 PM, Drammen, Weather by CustomWeather, © 2014

Note: Actual official high and low records may vary slightly from our data, if they occured in-between our weather recording intervals... More about our weather records

Advertising

Drammen weather history for previous 24 hours

 ConditionsComfort  
Time TempWeatherWind HumidityBarometerVisibility
4:50 PM
Dec 26
39 °FChilly.2 mph52%30.04 "HgN/A
4:20 PM37 °FChilly.3 mph52%30.04 "HgN/A
3:50 PM37 °FChilly.6 mph52%30.04 "HgN/A
3:20 PM41 °FQuite cool.8 mph42%30.04 "HgN/A
2:50 PM39 °FPassing clouds.9 mph52%30.04 "HgN/A
2:20 PM39 °FPassing clouds.13 mph61%30.04 "HgN/A
1:50 PM39 °FPartly sunny.12 mph56%30.04 "HgN/A
1:20 PM39 °FScattered clouds.14 mph65%30.07 "HgN/A
12:50 PM39 °FChilly.15 mph70%30.07 "HgN/A
12:20 PM39 °FPartly sunny.18 mph70%30.07 "HgN/A
11:50 AM37 °FSprinkles. Partly sunny.18 mph87%30.07 "HgN/A
11:20 AM39 °FPartly sunny.18 mph81%30.07 "HgN/A
10:50 AM37 °FScattered clouds.22 mph87%30.07 "HgN/A
10:20 AM39 °FPartly sunny.21 mph81%30.07 "HgN/A
9:50 AM39 °FScattered clouds.15 mph81%30.07 "HgN/A
9:20 AM39 °FPassing clouds.16 mph81%30.07 "HgN/A
8:50 AM41 °FPassing clouds.20 mph70%30.04 "HgN/A
8:20 AM39 °FPassing clouds.20 mph70%30.07 "HgN/A
7:50 AM39 °FSprinkles. Passing clouds.21 mph75%30.07 "HgN/A
7:20 AM39 °FPassing clouds.16 mph81%30.07 "HgN/A
6:50 AM39 °FPassing clouds.23 mph87%30.07 "HgN/A
6:20 AM37 °FPassing clouds.16 mph87%30.07 "HgN/A
5:50 AM37 °FSprinkles. Passing clouds.23 mph93%30.09 "HgN/A
5:20 AM37 °FSprinkles. Passing clouds.20 mph87%30.09 "HgN/A
4:50 AM37 °FPassing clouds.26 mph87%30.09 "HgN/A
4:20 AM37 °FLight rain. Passing clouds.35 mph87%30.09 "HgN/A
3:20 AM41 °FPassing clouds.31 mph76%30.12 "HgN/A
2:50 AM41 °FPassing clouds.21 mph57%30.15 "HgN/A
2:20 AM41 °FPassing clouds.18 mph61%30.15 "HgN/A
1:50 AM41 °FPassing clouds.16 mph61%30.15 "HgN/A
1:20 AM41 °FPassing clouds.13 mph66%30.18 "HgN/A
12:50 AM41 °FPassing clouds.13 mph66%30.18 "HgN/A
12:20 AM39 °FPassing clouds.15 mph70%30.18 "HgN/A
11:50 PM
Dec 25
39 °FPassing clouds.14 mph70%30.18 "HgN/A
11:20 PM39 °FPassing clouds.18 mph70%30.21 "HgN/A
10:50 PM41 °FPassing clouds.20 mph66%30.21 "HgN/A
10:20 PM41 °FPassing clouds.21 mph70%30.21 "HgN/A
9:50 PM39 °FPassing clouds.21 mph70%30.21 "HgN/A
9:20 PM41 °FPassing clouds.20 mph70%30.18 "HgN/A
8:50 PM39 °FSprinkles. Passing clouds.17 mph70%30.18 "HgN/A
8:20 PM39 °FPassing clouds.20 mph70%30.18 "HgN/A
7:50 PM39 °FPassing clouds.18 mph70%30.21 "HgN/A
7:20 PM39 °FPassing clouds.20 mph70%30.21 "HgN/A
6:50 PM39 °FPassing clouds.17 mph75%30.21 "HgN/A
6:20 PM37 °FSprinkles. Passing clouds.22 mph75%30.18 "HgN/A
Weather by CustomWeather, © 2014

See weather overviewHow to use our weather pages